Location: Waco, TX
(31.5480°N, 97.1670°W)
Time: 00:30:40
(UTC-06:00)

ISS - Pass Details

Date: 08 December 2017
Orbit: 403 x 407 km, 51.6° (Epoch: 12 December)

Event Time Altitude Azimuth Distance (km) Brightness Sun altitude
Rises 13:25:30 0° 216° (SW) 2,311 1.0 33.5°
Reaches altitude 10° 13:27:35 10° 213° (SSW) 1,455 0.3 33.4°
Maximum altitude 13:30:48 59° 133° (SE) 470 -2.8 33.1°
Drops below altitude 10° 13:34:02 10° 52° (NE) 1,463 -1.3 32.9°
Sets 13:36:08 0° 49° (NE) 2,326 -0.4 32.7°
